Regional Weather Roundup
Issued by NWS

Home | Current Version | Previous Version | Text Only | Print | Product List | Glossary Off
Versions: 1 2 3 4 5 6 7 8 9 10 11 12 13 14 15 16 17 18 19 20 21 22 23 24 25 26 27 28 29 30 31 32 33 34 35 36 37 38 39 40 41 42 43 44 45 46 47 48 49 50

000
ASUS44 KMEG 182310
RWRTN
TENNESSEE HOURLY STATE WEATHER ROUNDUP
NATIONAL WEATHER SERVICE MEMPHIS TN
600 PM CDT THU SEP 18 2014

TNZ002-004-019-021-049-052-054-088>092-190000-
WEST TENNESSEE

CITY           SKY/WX    TMP DP  RH WIND       PRES   REMARKS
MEMPHIS INTL   CLOUDY    79  67  66 E8        29.93R
NWS MEMPHIS      N/A     75 N/A N/A MISG        N/A
JACKSON        CLOUDY    72  62  71 E5        29.96R
DYERSBURG      PTSUNNY   70  57  64 E3        29.98R
UNION CITY     SUNNY     72  61  68 E5        29.97R
PARIS          SUNNY     70  57  64 E5        29.98S
HUNTINGDON     PTSUNNY   70  59  68 VRB3      29.98R
LEXINGTON      SUNNY     72  64  78 E5        29.96R
SAVANNAH       MOSUNNY   73  68  83 CALM      29.96R
$$

TNZ008-025-027-028-033-062-065-066-190000-
NORTH MIDDLE TENNESSEE

CITY           SKY/WX    TMP DP  RH WIND       PRES   REMARKS
NASHVILLE      CLOUDY    74  58  57 NE6       29.98S
DICKSON        CLOUDY    70  59  68 CALM      29.98S
PORTLAND       CLEAR     72  61  68 NE3       29.98S
CLARKSVILLE    MOCLDY    73  57  57 CALM      29.98R
LEBANON        CLOUDY    73  59  61 NE3       29.96F
SMYRNA         CLOUDY    74  60  61 N6        29.98S
MURFREESBORO   CLOUDY    73  57  57 NE5       29.97S
COOKEVILLE     CLEAR     72  61  68 CALM      29.99R
LIVINGSTON     CLOUDY    68  60  75 NE5       30.01S
GALLATIN       CLOUDY    74  62  66 CALM      29.99S
CROSSVILLE     CLOUDY    71  58  63 NE3       30.02S
$$

TNZ061-075-076-078-094-096-097-190000-
SOUTH MIDDLE TENNESSEE

CITY           SKY/WX    TMP DP  RH WIND       PRES   REMARKS
LEWISBURG      CLOUDY    74  60  61 N6        29.96R
FAYETTEVILLE   CLEAR     75  59  57 NE5       29.96R
TULLAHOMA      CLEAR     73  55  53 NE3       29.98R
WINCHESTER     CLEAR     75  57  53 NE5       29.96S
MCMINNVILLE    CLEAR     72  63  73 NE6       29.98S
COLUMBIA       PTCLDY    75  61  60 N5        29.96R
SHELBYVILLE    CLEAR     73  59  60 NE6       29.98R
$$

TNZ017-018-042-046-047-190000-
NORTHEAST TENNESSEE

CITY           SKY/WX    TMP DP  RH WIND       PRES   REMARKS
TRI CITIES     CLOUDY    70  54  56 N3        30.02R
ELIZABETHTON   CLOUDY    68  57  68 E3        30.02R
$$

TNZ012-013-036-069-073-074-190000-
CENTRAL EAST TENNESSEE

CITY           SKY/WX    TMP DP  RH WIND       PRES   REMARKS
KNOXVILLE      CLOUDY    74  56  53 N7        29.97S
OAK RIDGE      CLOUDY    73  57  57 NE3       30.00S
GATLINBURG     CLEAR     72  54  53 N5        29.99S
MORRISTOWN     CLEAR     70  55  60 N3        30.02S
$$

TNZ083-085-099-190000-
SOUTHEAST TENNESSEE

CITY           SKY/WX    TMP DP  RH WIND       PRES   REMARKS
CHATTANOOGA    MOCLDY    79  50  36 N8        29.97R
$$

SKY/WX REPORTED AS FAIR MEANS FEW OR NO CLOUDS BELOW
12 THOUSAND FEET.



USA.gov is the U.S. government's official web portal to all federal, state and local government web resources and services.